EJA409 KVJI-MYNN

Flight info

Callsign EJA409
Flight time N/A
Altitude 41000
Route HMV DCT HRTWL Q77 ETORE DCT ONEWY DCT EBAYY DCT FOMGU Y624 ZFP BR65V PEACH
Aircraft C68A/M-SDFGHRWY/SB1

Departure

Time 2026-05-04 02:45
Airport Virginia Highlands Airport (KVJI)

Arrival

Time N/A
Airport Lynden Pindling International Airport (MYNN)
Time Latitude Longitude Altitude Speed Heading
2026-05-04 02:40 36.68543 -82.03378 2076 ft 0 kts 237°
2026-05-04 02:41 36.68535 -82.03404 2076 ft 9 kts 253°
2026-05-04 02:41 36.68545 -82.03470 2076 ft 6 kts 347°
2026-05-04 02:42 36.68582 -82.03424 2075 ft 9 kts 56°
2026-05-04 02:42 36.68623 -82.03348 2075 ft 12 kts 56°
2026-05-04 02:42 36.68682 -82.03238 2073 ft 18 kts 55°
2026-05-04 02:42 36.68751 -82.03113 2070 ft 16 kts 56°
2026-05-04 02:43 36.68805 -82.03012 2071 ft 12 kts 56°
2026-05-04 02:43 36.68848 -82.02935 2072 ft 11 kts 56°
2026-05-04 02:43 36.68896 -82.02845 2072 ft 14 kts 56°
2026-05-04 02:43 36.68949 -82.02753 2072 ft 9 kts 41°
2026-05-04 02:44 36.68999 -82.02725 2075 ft 7 kts 23°
2026-05-04 02:44 36.69037 -82.02722 2075 ft 4 kts 288°
2026-05-04 02:44 36.69033 -82.02739 2075 ft 0 kts 239°
2026-05-04 02:44 36.69032 -82.02741 2075 ft 5 kts 239°
2026-05-04 02:45 36.68828 -82.03117 2071 ft 101 kts 236°
2026-05-04 02:45 36.68259 -82.04178 2252 ft 180 kts 237°
2026-05-04 02:45 36.67476 -82.05591 3224 ft 216 kts 233°
2026-05-04 02:45 36.66540 -82.07169 4446 ft 237 kts 236°
2026-05-04 02:46 36.65558 -82.08783 5675 ft 238 kts 224°
2026-05-04 02:46 36.64046 -82.09638 7096 ft 249 kts 194°
2026-05-04 02:46 36.62280 -82.09893 8571 ft 260 kts 193°
2026-05-04 02:46 36.60456 -82.10252 9984 ft 271 kts 195°
2026-05-04 02:47 36.58552 -82.10588 11310 ft 280 kts 193°
2026-05-04 02:47 36.56599 -82.10874 12695 ft 285 kts 194°
2026-05-04 02:47 36.54609 -82.11193 14031 ft 291 kts 195°
2026-05-04 02:47 36.52582 -82.11531 15189 ft 297 kts 195°
2026-05-04 02:48 36.50511 -82.11865 16346 ft 303 kts 194°
2026-05-04 02:48 36.48403 -82.12203 17505 ft 308 kts 194°
2026-05-04 02:48 36.46254 -82.12551 18589 ft 314 kts 194°
2026-05-04 02:48 36.44072 -82.12902 19609 ft 318 kts 194°
2026-05-04 02:49 36.41855 -82.12979 20611 ft 326 kts 186°
2026-05-04 02:49 36.39581 -82.12978 21571 ft 328 kts 188°
2026-05-04 02:49 36.37285 -82.13041 22530 ft 331 kts 188°
2026-05-04 02:49 36.34970 -82.13077 23475 ft 335 kts 187°
2026-05-04 02:50 36.32622 -82.13089 24276 ft 339 kts 187°
2026-05-04 02:50 36.30254 -82.13111 25015 ft 342 kts 188°
2026-05-04 02:50 36.27858 -82.13148 25746 ft 346 kts 188°
2026-05-04 02:50 36.25427 -82.13177 26480 ft 350 kts 188°
2026-05-04 02:51 36.22986 -82.13202 27205 ft 354 kts 188°
2026-05-04 02:51 36.20509 -82.13229 27898 ft 357 kts 188°
2026-05-04 02:51 36.18014 -82.13259 28566 ft 361 kts 188°
2026-05-04 02:51 36.15488 -82.13291 29222 ft 365 kts 188°
2026-05-04 02:52 36.12937 -82.13318 29841 ft 369 kts 188°
2026-05-04 02:52 36.10350 -82.13348 30428 ft 372 kts 188°
2026-05-04 02:52 36.07751 -82.13379 30962 ft 375 kts 188°
2026-05-04 02:52 36.05167 -82.13408 31503 ft 378 kts 188°
2026-05-04 02:53 36.02486 -82.13437 32033 ft 381 kts 188°
2026-05-04 02:53 35.99867 -82.13468 32536 ft 383 kts 188°
2026-05-04 02:53 35.97186 -82.13500 33052 ft 386 kts 188°
2026-05-04 02:53 35.94486 -82.13531 33549 ft 389 kts 188°
2026-05-04 02:54 35.91770 -82.13561 34033 ft 392 kts 188°
2026-05-04 02:54 35.89029 -82.13592 34457 ft 394 kts 188°
2026-05-04 02:54 35.86281 -82.13624 34893 ft 396 kts 188°
2026-05-04 02:54 35.83512 -82.13656 35305 ft 399 kts 188°
2026-05-04 02:55 35.77929 -82.13719 36107 ft 402 kts 188°